#�ϑ�����,���ϕ���,���ϕ���,�ő啗��,�ő啗����������,�ő�u�ԕ���,�ő�u�ԕ�����������
#(�N����),(m/s)   ,(16����),(m/s)   ,(16����)        ,(m/s)       ,(16����)            
2018/9/22 0:01,0.6,16,0.6,3,1.8,16
2018/9/22 0:02,0.7,15,0.7,3,1.8,1
2018/9/22 0:03,0.8,15,0.8,15,0.8,1
2018/9/22 0:04,0.8,16,0.8,15,0.5,2
2018/9/22 0:05,0.8,16,0.8,15,0.6,16
2018/9/22 0:06,0.8,16,0.8,15,0.6,16
2018/9/22 0:07,0.7,16,0.8,15,0.3,14
2018/9/22 0:08,0.6,16,0.7,15,0.4,1
2018/9/22 0:09,0.6,16,0.6,15,0.9,16
2018/9/22 0:10,0.5,16,0.6,15,1.3,16
2018/9/22 0:11,0.4,16,0.5,15,0.9,16
2018/9/22 0:12,0.4,16,0.4,15,1,15
2018/9/22 0:13,0.4,16,0.4,15,0.9,15
2018/9/22 0:14,0.4,16,0.4,16,0.8,1
2018/9/22 0:15,0.5,16,0.5,16,1,16
2018/9/22 0:16,0.5,16,0.5,16,1.5,15
2018/9/22 0:17,0.7,16,0.7,16,1.9,16
2018/9/22 0:18,0.7,16,0.7,16,1.6,16
2018/9/22 0:19,0.8,16,0.8,16,2,16
2018/9/22 0:20,0.8,16,0.8,16,1.8,16
2018/9/22 0:21,0.9,15,0.9,16,1.8,16
2018/9/22 0:22,0.9,15,0.9,16,1.3,16
2018/9/22 0:23,1,16,1,16,1.5,16
2018/9/22 0:24,1,15,1,16,1,16
2018/9/22 0:25,1,15,1,16,1.1,15
2018/9/22 0:26,0.9,15,1,16,0.6,16
2018/9/22 0:27,0.8,15,0.9,16,0.5,15
2018/9/22 0:28,0.8,15,0.8,16,0.6,15
2018/9/22 0:29,0.6,15,0.7,16,0.9,14
2018/9/22 0:30,0.7,15,0.7,16,1.5,16
2018/9/22 0:31,0.7,15,0.7,16,1.8,16
2018/9/22 0:32,0.7,16,0.7,16,1.3,16
2018/9/22 0:33,0.7,16,0.7,16,1.4,1
2018/9/22 0:34,0.7,16,0.7,15,1,1
2018/9/22 0:35,0.7,16,0.7,15,1.3,2
2018/9/22 0:36,0.8,16,0.8,15,1.4,2
2018/9/22 0:37,0.8,1,0.8,15,1,1
2018/9/22 0:38,0.8,1,0.8,16,0.8,1
2018/9/22 0:39,0.9,1,0.9,1,0.9,14
2018/9/22 0:40,0.9,16,0.9,1,1.5,12
2018/9/22 0:41,0.9,16,0.9,1,1.9,11
2018/9/22 0:42,1,16,1,16,1.6,12
2018/9/22 0:43,1,15,1,16,1.5,10
2018/9/22 0:44,0.9,13,1,16,0.6,10
2018/9/22 0:45,0.8,13,0.9,16,0.1,11
2018/9/22 0:46,0.7,13,0.8,16,0.1,2
2018/9/22 0:47,0.6,12,0.7,16,0.1,8
2018/9/22 0:48,0.6,11,0.6,16,0.8,9
2018/9/22 0:49,0.6,11,0.6,16,0.5,9
2018/9/22 0:50,0.5,10,0.6,16,0.1,9
2018/9/22 0:51,0.3,10,0.5,16,0.8,10
2018/9/22 0:52,0.3,10,0.3,16,0.9,10
2018/9/22 0:53,0.2,10,0.3,15,0.6,11
2018/9/22 0:54,0.3,10,0.3,13,0.9,10
2018/9/22 0:55,0.3,10,0.3,13,0.8,10
2018/9/22 0:56,0.3,10,0.3,13,0.5,10
2018/9/22 0:57,0.4,10,0.4,12,0.6,8
2018/9/22 0:58,0.4,10,0.4,11,0.5,8
2018/9/22 0:59,0.4,10,0.4,11,0.9,10
2018/9/22 1:00,0.4,10,0.4,10,0.5,12
2018/9/22 1:01,0.5,10,0.5,10,0.6,12
2018/9/22 1:02,0.4,10,0.5,10,0.6,12
2018/9/22 1:03,0.4,11,0.4,10,0.3,12
2018/9/22 1:04,0.3,11,0.4,10,0.1,13
2018/9/22 1:05,0.3,11,0.3,10,0.1,8
2018/9/22 1:06,0.3,11,0.3,10,0.1,8
2018/9/22 1:07,0.2,11,0.3,10,0.1,6
2018/9/22 1:08,0.2,11,0.2,10,0,6
2018/9/22 1:09,0.1,10,0.2,10,0,9
2018/9/22 1:10,0.1,10,0.1,10,0,9
2018/9/22 1:11,0,10,0.1,10,0,9
2018/9/22 1:12,0,10,0,11,0.1,14
2018/9/22 1:13,0,10,0,11,0.5,13
2018/9/22 1:14,0,10,0,11,0.1,14
2018/9/22 1:15,0,11,0,11,0.1,1
2018/9/22 1:16,0,13,0,11,0.6,1
2018/9/22 1:17,0.1,14,0.1,11,1,2
2018/9/22 1:18,0.2,15,0.2,11,1,1
2018/9/22 1:19,0.2,16,0.2,14,0.6,2
2018/9/22 1:20,0.2,16,0.2,14,0.3,3
2018/9/22 1:21,0.3,1,0.3,16,0.6,3
2018/9/22 1:22,0.3,1,0.3,16,0.4,3
2018/9/22 1:23,0.3,2,0.3,16,0,3
2018/9/22 1:24,0.3,2,0.3,16,0.3,6
2018/9/22 1:25,0.3,3,0.3,16,0.8,6
2018/9/22 1:26,0.3,3,0.3,16,0.8,8
2018/9/22 1:27,0.3,4,0.4,4,1.3,8
2018/9/22 1:28,0.3,5,0.3,4,1.6,10
2018/9/22 1:29,0.4,6,0.4,4,1.3,10
2018/9/22 1:30,0.4,7,0.4,4,0.6,9
2018/9/22 1:31,0.4,8,0.4,4,0.8,11
2018/9/22 1:32,0.4,9,0.4,4,0.6,11
2018/9/22 1:33,0.5,9,0.5,9,1,8
2018/9/22 1:34,0.6,9,0.6,9,1.6,10
2018/9/22 1:35,0.6,10,0.6,9,0.8,11
2018/9/22 1:36,0.5,10,0.6,9,0.4,8
2018/9/22 1:37,0.5,10,0.5,9,0.1,16
2018/9/22 1:38,0.4,10,0.5,9,0.5,11
2018/9/22 1:39,0.4,10,0.4,9,0.9,9
2018/9/22 1:40,0.4,10,0.4,9,0.8,10
2018/9/22 1:41,0.4,10,0.4,9,0.8,10
2018/9/22 1:42,0.3,10,0.4,9,0.4,11
2018/9/22 1:43,0.3,11,0.3,9,0,11
2018/9/22 1:44,0.2,11,0.3,9,0,11
2018/9/22 1:45,0.2,11,0.2,10,0.9,1
2018/9/22 1:46,0.2,12,0.2,10,1,1
2018/9/22 1:47,0.2,12,0.3,10,0.4,2
2018/9/22 1:48,0.2,12,0.3,10,0.5,3
2018/9/22 1:49,0.2,14,0.2,10,0.4,3
2018/9/22 1:50,0.2,16,0.2,10,0.1,16
2018/9/22 1:51,0.1,16,0.2,10,0.4,15
2018/9/22 1:52,0.1,1,0.1,10,0.4,16
2018/9/22 1:53,0.2,1,0.2,11,1.3,2
2018/9/22 1:54,0.3,1,0.3,12,1.4,2
2018/9/22 1:55,0.3,1,0.4,1,1.3,1
2018/9/22 1:56,0.3,1,0.3,1,0.6,16
2018/9/22 1:57,0.4,1,0.4,1,2.2,1
2018/9/22 1:58,0.4,1,0.4,1,2,2
2018/9/22 1:59,0.4,1,0.4,1,0.5,9
2018/9/22 2:00,0.4,1,0.4,1,0.4,16
2018/9/22 2:01,0.4,1,0.4,1,0.1,10
2018/9/22 2:02,0.4,1,0.4,1,0,8
2018/9/22 2:03,0.4,16,0.4,1,0.1,15
2018/9/22 2:04,0.2,16,0.3,1,0.1,14
2018/9/22 2:05,0.2,16,0.2,1,0.1,1
2018/9/22 2:06,0.2,16,0.2,1,0.5,1
2018/9/22 2:07,0.1,16,0.2,1,0.9,1
2018/9/22 2:08,0.1,16,0.1,1,0.6,1
2018/9/22 2:09,0.1,16,0.1,1,0.1,1
2018/9/22 2:10,0.1,1,0.1,1,0,1
2018/9/22 2:11,0.1,1,0.1,1,0.1,15
2018/9/22 2:12,0.1,16,0.1,1,0.1,15
2018/9/22 2:13,0.2,16,0.2,16,0.8,15
2018/9/22 2:14,0.3,16,0.3,16,1.3,16
2018/9/22 2:15,0.3,16,0.3,16,1.1,16
2018/9/22 2:16,0.4,16,0.4,16,1,1
2018/9/22 2:17,0.3,16,0.4,16,0.3,1
2018/9/22 2:18,0.3,16,0.3,16,0.1,1
2018/9/22 2:19,0.3,16,0.3,16,0.1,12
2018/9/22 2:20,0.3,16,0.3,16,0.8,13
2018/9/22 2:21,0.4,16,0.4,16,1.1,14
2018/9/22 2:22,0.5,16,0.5,16,1.1,15
2018/9/22 2:23,0.5,16,0.5,16,1.1,15
2018/9/22 2:24,0.5,16,0.5,16,1,16
2018/9/22 2:25,0.4,16,0.5,16,0.8,16
2018/9/22 2:26,0.4,16,0.4,16,0.5,16
2018/9/22 2:27,0.4,15,0.4,16,0.8,16
2018/9/22 2:28,0.5,15,0.5,16,0.9,16
2018/9/22 2:29,0.6,16,0.6,16,0.8,16
2018/9/22 2:30,0.5,16,0.6,16,0.6,1
2018/9/22 2:31,0.5,16,0.5,16,0.1,15
2018/9/22 2:32,0.4,16,0.5,16,0.1,15
2018/9/22 2:33,0.3,16,0.4,16,0.8,15
2018/9/22 2:34,0.3,16,0.3,16,1,14
2018/9/22 2:35,0.4,15,0.4,16,1,14
2018/9/22 2:36,0.4,15,0.4,16,0.9,14
2018/9/22 2:37,0.4,15,0.4,16,0.5,13
2018/9/22 2:38,0.4,14,0.4,16,0.8,11
2018/9/22 2:39,0.4,14,0.4,16,0.9,11
2018/9/22 2:40,0.5,13,0.5,16,1.3,11
2018/9/22 2:41,0.6,13,0.6,13,1.3,11
2018/9/22 2:42,0.7,13,0.7,13,1.5,12
2018/9/22 2:43,0.8,12,0.8,12,1.1,12
2018/9/22 2:44,0.8,12,0.8,12,1.3,13
2018/9/22 2:45,0.8,12,0.8,12,1.6,11
2018/9/22 2:46,0.9,12,0.9,12,1.8,14
2018/9/22 2:47,1,12,1,12,2.2,14
2018/9/22 2:48,1.1,12,1.1,12,2.1,12
2018/9/22 2:49,1.2,12,1.2,12,2.6,12
2018/9/22 2:50,1.3,12,1.3,12,2.6,10
2018/9/22 2:51,1.4,11,1.4,11,2.2,10
2018/9/22 2:52,1.4,11,1.4,11,1.8,8
2018/9/22 2:53,1.4,11,1.4,11,1.4,7
2018/9/22 2:54,1.3,11,1.4,11,0.9,9
2018/9/22 2:55,1.3,10,1.3,11,1,10
2018/9/22 2:56,1.2,10,1.3,11,0.9,8
2018/9/22 2:57,1.1,10,1.2,11,0.9,8
2018/9/22 2:58,1,9,1.1,11,0.8,8
2018/9/22 2:59,0.9,9,1,11,0.6,9
2018/9/22 3:00,0.7,9,0.8,11,0,9
2018/9/22 3:01,0.5,9,0.7,11,0,9
2018/9/22 3:02,0.4,9,0.5,11,0,9
2018/9/22 3:03,0.3,9,0.4,11,0,9
2018/9/22 3:04,0.2,9,0.3,11,0.1,9
2018/9/22 3:05,0.2,9,0.2,10,0,16
2018/9/22 3:06,0.2,9,0.2,10,0.6,1
2018/9/22 3:07,0.1,9,0.2,10,0.5,1
2018/9/22 3:08,0.2,10,0.2,9,1.1,16
2018/9/22 3:09,0.2,14,0.2,9,1.3,16
2018/9/22 3:10,0.2,15,0.2,9,0.8,16
2018/9/22 3:11,0.2,16,0.2,9,0.4,15
2018/9/22 3:12,0.2,16,0.2,9,0,16
2018/9/22 3:13,0.2,16,0.2,9,0,15
2018/9/22 3:14,0.2,16,0.2,9,0,15
2018/9/22 3:15,0.2,16,0.2,9,0,15
2018/9/22 3:16,0.2,15,0.2,9,0.1,14
2018/9/22 3:17,0.1,15,0.2,10,0,14
2018/9/22 3:18,0.1,15,0.1,10,0,14
2018/9/22 3:19,0.1,15,0.1,14,0,13
2018/9/22 3:20,0,14,0,15,0,13
2018/9/22 3:21,0,15,0,16,0.5,1
2018/9/22 3:22,0.1,15,0.1,16,0.9,1
2018/9/22 3:23,0.2,15,0.2,16,1,1
2018/9/22 3:24,0.2,15,0.2,16,0.8,16
2018/9/22 3:25,0.3,15,0.3,15,1,16
2018/9/22 3:26,0.3,15,0.3,15,0.8,1
2018/9/22 3:27,0.3,16,0.3,15,0.5,16
2018/9/22 3:28,0.4,16,0.4,16,0.5,1
2018/9/22 3:29,0.4,1,0.4,16,0.6,1
2018/9/22 3:30,0.4,1,0.4,16,0,5
2018/9/22 3:31,0.4,16,0.4,16,0.1,13
2018/9/22 3:32,0.3,16,0.4,16,0.1,15
2018/9/22 3:33,0.3,16,0.3,16,0.6,16
2018/9/22 3:34,0.3,16,0.3,16,0.9,16
2018/9/22 3:35,0.3,16,0.3,16,0.8,16
2018/9/22 3:36,0.3,16,0.3,16,0.6,16
2018/9/22 3:37,0.3,15,0.3,16,0.8,16
2018/9/22 3:38,0.3,15,0.3,16,0.5,15
2018/9/22 3:39,0.3,15,0.3,1,0.3,15
2018/9/22 3:40,0.3,15,0.3,1,0.3,15
2018/9/22 3:41,0.3,15,0.3,16,0.3,15
2018/9/22 3:42,0.3,15,0.3,16,0.3,13
2018/9/22 3:43,0.3,15,0.3,16,0.1,13
2018/9/22 3:44,0.2,15,0.3,16,0.3,16
2018/9/22 3:45,0.2,15,0.2,16,0.3,16
2018/9/22 3:46,0.2,14,0.2,16,0.5,16
2018/9/22 3:47,0.2,15,0.2,15,1,16
2018/9/22 3:48,0.2,15,0.2,15,1,16
2018/9/22 3:49,0.2,15,0.2,15,1.1,15
2018/9/22 3:50,0.3,15,0.3,15,0.6,15
2018/9/22 3:51,0.3,15,0.3,15,0.1,12
2018/9/22 3:52,0.2,14,0.3,15,0.1,12
2018/9/22 3:53,0.2,14,0.2,15,0.1,12
2018/9/22 3:54,0.2,14,0.2,15,0.1,12
2018/9/22 3:55,0.2,14,0.2,15,0.1,12
2018/9/22 3:56,0.2,14,0.2,15,0.1,13
2018/9/22 3:57,0.2,14,0.2,15,0.8,16
2018/9/22 3:58,0.2,14,0.2,15,1.5,15
2018/9/22 3:59,0.3,14,0.3,15,2,16
2018/9/22 4:00,0.5,14,0.5,14,2.4,16
2018/9/22 4:01,0.6,14,0.6,14,2.4,16
2018/9/22 4:02,0.7,15,0.7,15,1.6,1
2018/9/22 4:03,0.8,15,0.8,15,1.5,16
2018/9/22 4:04,0.9,16,0.9,16,0.9,16
2018/9/22 4:05,0.9,16,0.9,16,0.4,16
2018/9/22 4:06,0.9,16,0.9,16,0.1,12
2018/9/22 4:07,0.9,15,0.9,16,1.8,9
2018/9/22 4:08,1,15,1,15,2.5,10
2018/9/22 4:09,1,14,1,15,2.6,10
2018/9/22 4:10,1.1,13,1.1,13,2.7,10
2018/9/22 4:11,1.1,12,1.1,13,2.7,10
2018/9/22 4:12,1.2,11,1.2,11,3,10
2018/9/22 4:13,1.3,11,1.3,11,3,10
2018/9/22 4:14,1.4,10,1.4,11,3,10
2018/9/22 4:15,1.6,10,1.6,10,2.9,11
2018/9/22 4:16,1.9,10,1.9,10,3.1,11
2018/9/22 4:17,1.9,10,1.9,10,2.5,11
2018/9/22 4:18,1.9,10,1.9,10,3.2,9
2018/9/22 4:19,1.8,10,1.9,10,2.1,10
2018/9/22 4:20,1.7,10,1.8,10,1,11
2018/9/22 4:21,1.6,10,1.7,10,1,10
2018/9/22 4:22,1.4,11,1.6,10,0.1,12
2018/9/22 4:23,1.3,11,1.4,10,1,15
2018/9/22 4:24,1.1,12,1.2,10,1.3,16
2018/9/22 4:25,0.9,12,1.1,10,0.8,16
2018/9/22 4:26,0.8,12,0.9,10,1,12
2018/9/22 4:27,0.7,12,0.7,10,1.1,14
2018/9/22 4:28,0.5,13,0.6,10,0.9,15
2018/9/22 4:29,0.4,14,0.5,10,0.8,16
2018/9/22 4:30,0.4,15,0.4,10,1.1,16
2018/9/22 4:31,0.4,15,0.4,10,1,8
2018/9/22 4:32,0.4,16,0.4,11,1,8
2018/9/22 4:33,0.3,16,0.4,11,1,16
2018/9/22 4:34,0.3,15,0.4,12,0.9,15
2018/9/22 4:35,0.4,14,0.4,12,1.4,13
2018/9/22 4:36,0.4,14,0.4,12,1.3,14
2018/9/22 4:37,0.5,14,0.5,12,3.9,14
2018/9/22 4:38,0.7,14,0.7,14,3.9,16
2018/9/22 4:39,1,14,1,14,4.5,13
2018/9/22 4:40,1.1,14,1.1,14,4.1,14
2018/9/22 4:41,1.5,14,1.5,14,4.9,14
2018/9/22 4:42,1.7,14,1.7,14,3.1,15
2018/9/22 4:43,1.8,14,1.8,14,3.1,16
2018/9/22 4:44,2,14,2,14,3.5,15
2018/9/22 4:45,2.3,14,2.3,14,6.1,16
2018/9/22 4:46,2.6,15,2.6,15,6,16
2018/9/22 4:47,2.7,15,2.8,15,5.4,15
2018/9/22 4:48,2.8,15,2.8,15,4.4,1
2018/9/22 4:49,3,15,3,15,8.6,16
2018/9/22 4:50,3,15,3,15,5.4,15
2018/9/22 4:51,3,15,3,15,7,16
2018/9/22 4:52,3.2,16,3.2,16,6,16
2018/9/22 4:53,3.4,16,3.4,16,7.1,16
2018/9/22 4:54,3.4,16,3.4,16,4.3,16
2018/9/22 4:55,3.3,16,3.4,16,4.4,1
2018/9/22 4:56,3.5,16,3.5,16,7,16
2018/9/22 4:57,3.6,16,3.6,16,6.5,15
2018/9/22 4:58,3.6,16,3.6,16,5.7,15
2018/9/22 4:59,3.8,16,3.8,16,9.2,16
2018/9/22 5:00,4,16,4,16,7.1,16
2018/9/22 5:01,4,16,4,16,6.1,16
2018/9/22 5:02,4,16,4,16,5.1,16
2018/9/22 5:03,3.9,16,4,16,7.4,16
2018/9/22 5:04,4,16,4.1,16,5.6,16
2018/9/22 5:05,4.1,16,4.1,16,5.2,16
2018/9/22 5:06,3.8,16,4.1,16,4.2,16
2018/9/22 5:07,3.6,16,3.8,16,4.9,16
2018/9/22 5:08,3.7,16,3.7,16,5,15
2018/9/22 5:09,3.3,16,3.6,16,3.2,16
2018/9/22 5:10,3.4,16,3.4,16,6.5,15
2018/9/22 5:11,3.4,16,3.4,16,6.8,16
2018/9/22 5:12,3.3,16,3.4,16,4.8,14
2018/9/22 5:13,3.2,16,3.3,16,3.9,14
2018/9/22 5:14,3.1,15,3.2,16,3.5,16
2018/9/22 5:15,3,15,3.1,16,4.5,16
2018/9/22 5:16,3.1,15,3.1,16,6.1,15
2018/9/22 5:17,3.2,15,3.2,16,5.2,15
2018/9/22 5:18,3.1,15,3.2,16,4.9,15
2018/9/22 5:19,3.1,15,3.1,16,4.2,15
2018/9/22 5:20,2.7,15,3,16,3.5,13
2018/9/22 5:21,2.6,15,2.7,16,3.6,1
2018/9/22 5:22,2.5,15,2.5,16,4.3,16
2018/9/22 5:23,2.6,15,2.6,16,6.3,16
2018/9/22 5:24,2.8,16,2.8,15,4.9,16
2018/9/22 5:25,2.8,16,2.9,15,3.5,16
2018/9/22 5:26,2.8,16,2.8,15,6,16
2018/9/22 5:27,2.8,16,2.8,15,5.6,16
2018/9/22 5:28,2.9,16,2.9,15,5.4,14
2018/9/22 5:29,3,16,3,15,4.7,2
2018/9/22 5:30,3.1,16,3.1,16,5,16
2018/9/22 5:31,3.3,16,3.3,16,6.2,15
2018/9/22 5:32,3.4,16,3.5,16,6.7,14
2018/9/22 5:33,3.2,16,3.4,16,4.5,1
2018/9/22 5:34,3.2,16,3.2,16,6.1,15
2018/9/22 5:35,3.2,16,3.2,16,3.6,16
2018/9/22 5:36,3.3,15,3.3,16,6.8,15
2018/9/22 5:37,3.4,16,3.4,16,7.2,16
2018/9/22 5:38,3.5,16,3.5,16,7.5,16
2018/9/22 5:39,3.6,15,3.6,15,8.5,16
2018/9/22 5:40,3.9,16,3.9,16,11,15
2018/9/22 5:41,4,16,4,16,9.1,16
2018/9/22 5:42,4.1,16,4.1,16,6.7,15
2018/9/22 5:43,4.1,16,4.1,16,4.9,16
2018/9/22 5:44,4.3,16,4.3,16,7.4,16
2018/9/22 5:45,4.4,16,4.4,16,7.5,16
2018/9/22 5:46,4.3,16,4.4,16,3.6,16
2018/9/22 5:47,3.9,16,4.2,16,3.7,15
2018/9/22 5:48,4,16,4,16,7.6,16
2018/9/22 5:49,4,16,4.1,16,9.2,15
2018/9/22 5:50,3.9,16,4,16,6.5,15
2018/9/22 5:51,3.8,16,3.9,16,8.6,16
2018/9/22 5:52,3.9,16,3.9,16,8.6,16
2018/9/22 5:53,4.2,16,4.2,16,7.8,16
2018/9/22 5:54,4.2,16,4.2,16,8.3,16
2018/9/22 5:55,4.3,16,4.3,16,7.9,16
2018/9/22 5:56,4.4,16,4.4,16,5.5,16
2018/9/22 5:57,4.5,16,4.5,16,6,1
2018/9/22 5:58,4.6,16,4.6,16,9.1,15
2018/9/22 5:59,4.6,16,4.6,16,6.8,16
2018/9/22 6:00,4.6,16,4.6,16,7.7,16
2018/9/22 6:01,4.6,16,4.7,16,7.1,16
2018/9/22 6:02,4.4,16,4.6,16,5.6,16
2018/9/22 6:03,4.1,16,4.4,16,2.7,16
2018/9/22 6:04,3.6,16,4,16,1.4,16
2018/9/22 6:05,3.4,16,3.5,16,5.5,1
2018/9/22 6:06,3.5,16,3.5,16,6.2,15
2018/9/22 6:07,3.3,16,3.5,16,4.5,15
2018/9/22 6:08,3.2,16,3.3,16,5.7,2
2018/9/22 6:09,3,16,3.2,16,4.8,16
2018/9/22 6:10,2.9,16,3,16,5.6,15
2018/9/22 6:11,2.9,16,2.9,16,6.9,16
2018/9/22 6:12,3.1,16,3.1,16,8.3,1
2018/9/22 6:13,3.4,16,3.4,16,6.9,16
2018/9/22 6:14,3.7,16,3.7,16,7.2,15
2018/9/22 6:15,3.8,16,3.8,16,7,16
2018/9/22 6:16,4.1,16,4.1,16,9,15
2018/9/22 6:17,4.3,16,4.3,16,8.3,1
2018/9/22 6:18,4.4,16,4.5,16,6.5,16
2018/9/22 6:19,4.4,16,4.4,16,4.7,16
2018/9/22 6:20,4.7,16,4.7,16,10.5,15
2018/9/22 6:21,4.8,16,4.8,16,8.6,15
2018/9/22 6:22,4.9,16,4.9,16,10.6,16
2018/9/22 6:23,4.9,16,5,16,8.7,15
2018/9/22 6:24,5.1,16,5.1,16,9.1,16
2018/9/22 6:25,5.2,16,5.3,16,10.2,1
2018/9/22 6:26,5,16,5.2,16,7.7,15
2018/9/22 6:27,4.9,16,5,16,6.5,15
2018/9/22 6:28,4.9,16,5,16,6.8,16
2018/9/22 6:29,5.1,16,5.2,16,8.1,1
2018/9/22 6:30,4.7,16,5.1,16,4.9,15
2018/9/22 6:31,4.7,16,4.7,16,10.8,16
2018/9/22 6:32,4.4,16,4.6,16,6.7,15
2018/9/22 6:33,4.4,16,4.5,16,9.3,1
2018/9/22 6:34,4.3,16,4.4,16,7.7,2
2018/9/22 6:35,4,16,4.3,16,4.8,15
2018/9/22 6:36,3.9,16,4,16,4.7,15
2018/9/22 6:37,3.8,16,3.9,16,5.7,16
2018/9/22 6:38,3.6,16,3.8,16,6.5,16
2018/9/22 6:39,3.6,16,3.6,16,7.4,16
2018/9/22 6:40,3.7,16,3.8,16,7.8,15
2018/9/22 6:41,3.5,16,3.7,16,7.1,16
2018/9/22 6:42,3.6,16,3.6,16,5.4,16
2018/9/22 6:43,3.4,16,3.5,16,4.7,1
2018/9/22 6:44,3.4,16,3.4,16,7.2,16
2018/9/22 6:45,3.4,16,3.4,16,4.7,16
2018/9/22 6:46,3.5,16,3.5,16,6.3,1
2018/9/22 6:47,3.7,16,3.7,16,8.1,16
2018/9/22 6:48,4,16,4,16,8.9,16
2018/9/22 6:49,4,16,4,16,7.2,16
2018/9/22 6:50,4,16,4,16,5.8,1
2018/9/22 6:51,3.9,16,4,16,5.2,15
2018/9/22 6:52,3.7,16,3.8,16,8.1,16
2018/9/22 6:53,4,16,4,16,9.2,16
2018/9/22 6:54,3.8,16,4,16,7.2,15
2018/9/22 6:55,4.1,16,4.1,16,9,14
2018/9/22 6:56,4.2,16,4.2,16,7.9,14
2018/9/22 6:57,4.3,16,4.3,16,9.3,16
2018/9/22 6:58,4.2,16,4.2,16,6.9,16
2018/9/22 6:59,4.1,16,4.2,16,5.4,16
2018/9/22 7:00,4.2,16,4.2,16,6.5,15
2018/9/22 7:01,4.2,16,4.3,16,4.5,16
2018/9/22 7:02,4.2,16,4.2,16,6,1
2018/9/22 7:03,4,16,4.2,16,5.8,15
2018/9/22 7:04,4.1,16,4.1,16,5.7,16
2018/9/22 7:05,3.8,16,4,16,6.3,14
2018/9/22 7:06,3.6,16,3.8,16,5.5,15
2018/9/22 7:07,3.5,16,3.6,16,8.5,15
2018/9/22 7:08,3.6,16,3.6,16,8.6,16
2018/9/22 7:09,3.7,16,3.7,16,7.7,16
2018/9/22 7:10,3.9,16,3.9,16,10.6,16
2018/9/22 7:11,4.2,16,4.2,16,6.9,16
2018/9/22 7:12,4.3,16,4.3,16,7.5,16
2018/9/22 7:13,4.4,16,4.5,16,6.5,16
2018/9/22 7:14,4.5,16,4.5,16,6.5,14
2018/9/22 7:15,4.7,16,4.7,16,8.1,15
2018/9/22 7:16,4.9,16,4.9,16,7.7,16
2018/9/22 7:17,4.9,16,4.9,16,8.1,16
2018/9/22 7:18,4.7,16,4.9,16,4.7,15
2018/9/22 7:19,4.7,16,4.8,16,6.2,15
2018/9/22 7:20,4.5,16,4.7,16,7.1,15
2018/9/22 7:21,4.4,16,4.5,16,6.5,16
2018/9/22 7:22,4.3,16,4.4,16,6.4,16
2018/9/22 7:23,4.2,16,4.3,16,4.8,1
2018/9/22 7:24,4.1,16,4.2,16,5.1,16
2018/9/22 7:25,4.1,16,4.1,16,6.3,16
2018/9/22 7:26,4,16,4.1,16,6.7,1
2018/9/22 7:27,4,16,4,16,10.8,15
2018/9/22 7:28,4.1,16,4.1,16,7,16
2018/9/22 7:29,4.1,16,4.1,16,6.3,16
2018/9/22 7:30,3.8,16,4,16,4.8,1
2018/9/22 7:31,3.5,16,3.8,16,2.9,1
2018/9/22 7:32,3.4,16,3.5,16,4.3,16
2018/9/22 7:33,3.3,16,3.4,16,3.1,1
2018/9/22 7:34,3,16,3.2,16,3,15
2018/9/22 14:50,1.6,2,1.6,2,1.8,2
2018/9/22 14:51,1.5,2,1.7,2,2.2,2
2018/9/22 14:52,1,1,1.4,2,1.1,1
2018/9/22 14:53,0.9,16,1,2,0.9,15
2018/9/22 14:54,0.8,16,0.9,2,0.9,1
2018/9/22 14:55,0.8,16,0.8,2,2.2,9
2018/9/22 14:56,0.9,15,0.9,2,2.1,12
2018/9/22 14:57,1.1,14,1.1,2,2.7,11
2018/9/22 14:58,1,14,1.1,2,2,12
2018/9/22 14:59,1,14,1,2,1.6,14
2018/9/22 15:00,1.1,13,1.1,2,3,13
2018/9/22 15:01,1.1,13,1.1,2,1.9,14
2018/9/22 15:02,1.2,13,1.2,13,3.6,12
2018/9/22 15:03,1.4,12,1.4,12,2.6,14
2018/9/22 15:04,1.5,13,1.5,12,2.4,16
2018/9/22 15:05,1.5,13,1.5,12,2.1,14
2018/9/22 15:06,1.5,13,1.5,12,3.6,11
2018/9/22 15:07,1.4,13,1.5,12,2.2,8
2018/9/22 15:08,1.6,13,1.6,13,4.7,10
2018/9/22 15:09,1.6,13,1.6,13,2.5,9
2018/9/22 15:10,1.5,13,1.6,13,2,10
2018/9/22 15:11,1.4,13,1.5,13,2.2,5
2018/9/22 15:12,1.3,13,1.4,13,2.6,10
2018/9/22 15:13,1.3,12,1.3,13,3.8,10
2018/9/22 15:14,1.2,11,1.3,13,2.2,10
2018/9/22 15:15,1.2,11,1.2,13,1.9,16
2018/9/22 15:16,1.2,12,1.2,13,2.5,12
2018/9/22 15:17,1.2,12,1.2,13,1.3,12
2018/9/22 15:18,1,13,1.2,13,1.3,16
2018/9/22 15:19,1,13,1,13,2.2,14
2018/9/22 15:20,0.9,13,1,13,1,15
2018/9/22 15:21,0.9,13,0.9,13,1.1,1
2018/9/22 15:22,1.1,13,1.1,13,5,14
2018/9/22 15:23,1.3,14,1.3,12,4.8,16
2018/9/22 15:24,1.4,15,1.4,15,4.1,16
2018/9/22 15:25,1.6,15,1.6,15,4.9,1
2018/9/22 15:26,1.8,15,1.8,15,4.9,16
2018/9/22 15:27,2.1,16,2.1,16,6.3,16
2018/9/22 15:28,2.4,16,2.4,15,6.5,15
2018/9/22 15:29,2.7,16,2.7,16,4.2,16
2018/9/22 15:30,3,16,3,16,5.2,1
2018/9/22 15:31,3.2,16,3.2,16,4.3,15
2018/9/22 15:32,3.1,16,3.3,16,3.6,15
2018/9/22 15:33,3,16,3.1,16,2.6,16
2018/9/22 15:34,3.1,16,3.1,16,4.2,15
2018/9/22 15:35,3.1,16,3.1,16,4.8,16
2018/9/22 15:36,3,16,3.1,16,3.9,16
2018/9/22 15:37,2.7,16,3,16,2.7,16
2018/9/22 15:38,2.5,16,2.7,16,3.7,16
2018/9/22 15:39,2.5,16,2.5,16,3.2,1
2018/9/22 15:40,2.3,16,2.5,16,3.1,1
2018/9/22 15:41,2.3,16,2.3,16,4.3,16
2018/9/22 15:42,2.4,16,2.4,16,4.7,16
2018/9/22 15:43,2.5,16,2.5,16,4.1,16
2018/9/22 15:44,2.5,16,2.5,16,4.5,1
2018/9/22 15:45,2.4,16,2.5,16,3.7,16
2018/9/22 15:46,2.5,16,2.5,16,4.2,16
2018/9/22 15:47,2.6,16,2.6,16,4.8,15
2018/9/22 15:48,2.6,16,2.6,16,3,16
2018/9/22 15:49,2.6,16,2.6,16,3.8,16
2018/9/22 15:50,2.6,16,2.6,16,3.9,16
2018/9/22 15:51,2.6,16,2.7,16,4.3,1
2018/9/22 15:52,2.6,16,2.6,16,4.2,16
2018/9/22 15:53,2.6,16,2.6,16,3.8,15
2018/9/22 15:54,2.6,16,2.6,16,3.5,15
2018/9/22 15:55,2.4,16,2.5,16,2.1,1
2018/9/22 15:56,2.3,16,2.4,16,2.6,16
2018/9/22 15:57,2.2,16,2.3,16,3.5,16
2018/9/22 15:58,2.3,16,2.3,16,3,15
2018/9/22 15:59,2.4,16,2.4,16,5,16
2018/9/22 16:00,2.3,16,2.4,16,2.9,2
2018/9/22 16:01,2.2,16,2.3,16,2.2,1
2018/9/22 16:02,2.1,16,2.2,16,2.1,16
2018/9/22 16:03,1.9,16,2,16,1.8,16
2018/9/22 16:04,1.8,16,1.9,16,2.1,1
2018/9/22 16:05,1.8,16,1.8,16,1.9,16
2018/9/22 16:06,1.8,16,1.8,16,2.6,2
2018/9/22 16:07,1.8,16,1.8,16,3.5,16
2018/9/22 16:08,1.8,16,1.8,16,3.1,1
2018/9/22 16:09,1.6,16,1.8,16,3.9,16
2018/9/22 16:10,1.6,16,1.6,16,2.4,15
2018/9/22 16:11,1.8,16,1.8,16,3.7,1
2018/9/22 16:12,1.9,16,1.9,16,3.8,15
2018/9/22 16:13,1.9,16,1.9,16,3.1,15
2018/9/22 16:14,1.9,16,1.9,16,1.8,15
2018/9/22 16:15,1.9,16,1.9,16,1.4,15
2018/9/22 16:16,1.9,16,1.9,16,4.8,16
2018/9/22 16:17,1.9,16,1.9,16,3.8,1
2018/9/22 16:18,2,16,2,16,3.8,16
2018/9/22 16:19,2,16,2,16,3,16
2018/9/22 16:20,2,16,2,16,2.9,15
2018/9/22 16:21,1.9,16,2,16,2.2,16
2018/9/22 16:22,1.8,16,1.9,16,2.6,16
2018/9/22 16:23,1.8,16,1.9,16,3,15
2018/9/22 16:24,1.9,16,1.9,16,2.2,16
2018/9/22 16:25,1.9,16,1.9,16,2.5,16
2018/9/22 16:26,1.9,16,1.9,16,3.2,16
2018/9/22 16:27,1.9,16,1.9,16,2.9,16
2018/9/22 16:28,1.8,15,1.9,16,2.6,14
2018/9/22 16:29,1.7,16,1.8,16,2.7,16
2018/9/22 16:30,1.6,15,1.7,16,1.8,13
2018/9/22 16:31,1.7,15,1.7,16,3.7,14
2018/9/22 16:32,1.7,15,1.7,16,3.2,16
2018/9/22 16:33,1.8,15,1.8,16,3.7,16
2018/9/22 16:34,1.9,15,1.9,16,3.6,16
2018/9/22 16:35,2,16,2,15,2.7,16
2018/9/22 16:36,1.9,15,2,15,3.9,1
2018/9/22 16:37,2,16,2,15,5,15
2018/9/22 16:38,2.2,16,2.2,16,4.5,16
2018/9/22 16:39,2.4,16,2.4,16,4.4,16
2018/9/22 16:40,2.5,16,2.5,16,3.3,1
2018/9/22 16:41,2.5,16,2.5,16,3.7,15
2018/9/22 16:42,2.6,16,2.6,16,5,15
2018/9/22 16:43,2.7,15,2.7,16,3.7,16
2018/9/22 16:44,2.7,15,2.7,16,3,16
2018/9/22 16:45,2.8,15,2.8,15,3.9,14
2018/9/22 16:46,2.9,15,2.9,15,4.1,15
2018/9/22 16:47,2.9,15,2.9,15,5,15
2018/9/22 16:48,2.8,15,2.9,15,4.3,14
2018/9/22 16:49,2.8,15,2.8,15,3.9,16
2018/9/22 16:50,2.8,15,2.8,15,5,15
2018/9/22 16:51,2.9,15,2.9,15,3.9,15
2018/9/22 16:52,2.8,15,2.9,15,4.9,15
2018/9/22 16:53,2.8,15,2.8,15,3.9,15
2018/9/22 16:54,2.7,15,2.8,15,2.7,14
2018/9/22 16:55,2.6,15,2.7,15,3,15
2018/9/22 16:56,2.6,15,2.7,15,3,15
2018/9/22 16:57,2.5,15,2.6,15,3.8,15
2018/9/22 16:58,2.5,15,2.6,15,3.3,15
2018/9/22 16:59,2.5,15,2.5,15,4.5,16
2018/9/22 17:00,2.6,15,2.6,15,4.3,16
2018/9/22 17:01,2.5,15,2.6,15,3.8,15
2018/9/22 17:02,2.5,15,2.5,15,3.6,16
2018/9/22 17:03,2.4,15,2.5,15,3.5,16
2018/9/22 17:04,2.3,15,2.4,15,3.5,16
2018/9/22 17:05,2.4,15,2.4,15,5.4,16
2018/9/22 17:06,2.5,15,2.5,15,3.9,16
2018/9/22 17:07,2.5,16,2.5,15,4.7,15
2018/9/22 17:08,2.6,16,2.6,15,5.1,16
2018/9/22 17:09,2.7,16,2.7,16,5,16
2018/9/22 17:10,2.6,16,2.7,16,4.3,16
2018/9/22 17:11,2.7,16,2.7,16,4.4,16
2018/9/22 17:12,2.8,16,2.8,16,4.1,1
2018/9/22 17:13,3,16,3,16,4.8,16
2018/9/22 17:14,3.2,16,3.2,16,5.4,15
2018/9/22 17:15,3.2,16,3.2,16,4.8,16
2018/9/22 17:16,3.2,16,3.3,16,3.9,15
2018/9/22 17:17,3.2,16,3.3,16,3.3,15
2018/9/22 17:18,3.1,16,3.2,16,4.4,16
2018/9/22 17:19,3.1,16,3.1,16,4.4,2
2018/9/22 17:20,3.2,16,3.2,16,5,16
2018/9/22 17:21,3.3,16,3.3,16,5.6,16
2018/9/22 17:22,3.3,16,3.3,16,5.1,16
2018/9/22 17:23,3.3,16,3.3,16,5.4,16
2018/9/22 17:24,3.3,16,3.3,16,5.4,16
2018/9/22 17:25,3.3,16,3.3,16,4.9,16
2018/9/22 17:26,3.4,16,3.4,16,7.1,16
2018/9/22 17:27,3.6,16,3.6,16,6.9,16
2018/9/22 17:28,3.6,16,3.6,16,5.6,1
2018/9/22 17:29,3.7,16,3.7,16,5.4,16
2018/9/22 17:30,3.7,16,3.7,16,6.2,15
2018/9/22 17:31,3.8,16,3.8,16,5.7,15
2018/9/22 17:32,3.8,16,3.8,16,5.2,15
2018/9/22 17:33,4,16,4,16,7,15
2018/9/22 17:34,4,16,4.1,16,5.7,15
2018/9/22 17:35,4,16,4,16,5.2,16
2018/9/22 17:36,4.1,16,4.1,16,6.3,16
2018/9/22 17:37,4,16,4.1,16,5.5,15
2018/9/22 17:38,4,16,4.1,16,5.4,16
2018/9/22 17:39,4,16,4,16,5,16
2018/9/22 17:40,4,16,4,16,5.1,15
2018/9/22 17:41,3.9,16,4,16,5.1,16
2018/9/22 17:42,3.9,16,4,16,5.6,15
2018/9/22 17:43,3.7,16,3.9,16,4.9,16
2018/9/22 17:44,3.7,16,3.7,16,4.9,16
2018/9/22 17:45,3.7,16,3.7,16,5.4,1
2018/9/22 17:46,3.5,16,3.7,16,4.7,1
2018/9/22 17:47,3.5,16,3.5,16,5.6,16
2018/9/22 17:48,3.4,16,3.5,16,4.7,1
2018/9/22 17:49,3.4,16,3.4,16,6.1,16
2018/9/22 17:50,3.5,16,3.5,16,6,16
2018/9/22 17:51,3.5,16,3.5,16,5.1,16
2018/9/22 17:52,3.5,16,3.5,16,5.4,16
2018/9/22 17:53,3.4,16,3.5,16,3.6,16
2018/9/22 17:54,3.4,16,3.4,16,4.5,16
2018/9/22 17:55,3.2,16,3.3,16,4.8,16
2018/9/22 17:56,3.4,16,3.4,16,5.8,16
2018/9/22 17:57,3.4,16,3.4,16,4.4,16
2018/9/22 17:58,3.5,16,3.5,16,5,16
2018/9/22 17:59,3.2,16,3.4,16,3.3,16
2018/9/22 18:00,3.1,16,3.2,16,4.3,16
2018/9/22 18:01,2.9,16,3.1,16,4.1,16
2018/9/22 18:02,2.9,16,2.9,16,4.1,15
2018/9/22 18:03,2.8,16,2.9,16,2.5,1
2018/9/22 18:04,2.7,16,2.8,16,4.5,1
2018/9/22 18:05,2.7,16,2.7,16,4.2,16
2018/9/22 18:06,2.6,16,2.7,16,4.7,15
2018/9/22 18:07,2.6,16,2.7,16,4.8,16
2018/9/22 18:08,2.6,16,2.6,16,3.8,1
2018/9/22 18:09,2.6,16,2.6,16,3.6,16
2018/9/22 18:10,2.6,16,2.7,16,4.7,15
2018/9/22 18:11,2.7,16,2.7,16,5.6,15
2018/9/22 18:12,2.7,16,2.7,16,5.1,16